SAS81P ENGM-ENBR

Flight info

Callsign SAS81P
Flight time 0h 39m
Altitude 27998
Route ATLAP DCT AGEKU DCT PESUR
Aircraft A319/M-SDE3FGIJ1RWXY/LB1

Departure

Time 2026-05-06 16:31
Airport Oslo-Gardermoen International Airport (ENGM)

Arrival

Time 2026-05-06 17:10
Airport Bergen Airport, Flesland (ENBR)
Time Latitude Longitude Altitude Speed Heading
2026-05-06 16:10 60.19559 11.09424 685 ft 0 kts 196°
2026-05-06 16:22 60.19578 11.09435 683 ft 4 kts 196°
2026-05-06 16:22 60.19601 11.09448 681 ft 1 kts 196°
2026-05-06 16:22 60.19602 11.09448 681 ft 0 kts 196°
2026-05-06 16:25 60.19600 11.09447 685 ft 1 kts 200°
2026-05-06 16:25 60.19602 11.09433 680 ft 1 kts 278°
2026-05-06 16:25 60.19627 11.09419 684 ft 7 kts 345°
2026-05-06 16:25 60.19688 11.09348 683 ft 14 kts 295°
2026-05-06 16:26 60.19723 11.09112 683 ft 21 kts 286°
2026-05-06 16:26 60.19756 11.08873 677 ft 21 kts 285°
2026-05-06 16:26 60.19778 11.08728 678 ft 0 kts 293°
2026-05-06 16:27 60.19780 11.08718 678 ft 3 kts 294°
2026-05-06 16:27 60.19822 11.08701 677 ft 11 kts 12°
2026-05-06 16:28 60.19929 11.08761 680 ft 21 kts 16°
2026-05-06 16:28 60.20087 11.08852 677 ft 27 kts 16°
2026-05-06 16:28 60.20277 11.08962 681 ft 29 kts 16°
2026-05-06 16:28 60.20467 11.09071 680 ft 27 kts 16°
2026-05-06 16:29 60.20609 11.09149 683 ft 14 kts
2026-05-06 16:29 60.20661 11.08957 677 ft 21 kts 285°
2026-05-06 16:29 60.20697 11.08714 679 ft 13 kts 286°
2026-05-06 16:29 60.20675 11.08628 678 ft 0 kts 197°
2026-05-06 16:30 60.20559 11.08561 679 ft 51 kts 196°
2026-05-06 16:30 60.20424 11.08482 678 ft 74 kts 196°
2026-05-06 16:30 60.19038 11.07676 748 ft 161 kts 196°
2026-05-06 16:30 60.18336 11.07248 1198 ft 157 kts 199°
2026-05-06 16:31 60.16975 11.06246 2145 ft 155 kts 213°
2026-05-06 16:31 60.16426 11.05350 2582 ft 153 kts 230°
2026-05-06 16:31 60.15890 11.03537 3252 ft 151 kts 250°
2026-05-06 16:31 60.15485 11.01601 3919 ft 151 kts 248°
2026-05-06 16:32 60.15048 10.99556 4335 ft 170 kts 248°
2026-05-06 16:32 60.14550 10.97238 4688 ft 192 kts 249°
2026-05-06 16:32 60.14344 10.94438 5028 ft 219 kts 277°
2026-05-06 16:32 60.14541 10.91235 5582 ft 244 kts 275°
2026-05-06 16:33 60.14662 10.87725 6403 ft 257 kts 273°
2026-05-06 16:33 60.14752 10.84107 7418 ft 262 kts 272°
2026-05-06 16:33 60.14837 10.80433 8468 ft 266 kts 272°
2026-05-06 16:34 60.15027 10.72858 10320 ft 282 kts 272°
2026-05-06 16:34 60.15141 10.68770 10799 ft 301 kts 272°
2026-05-06 16:34 60.15262 10.64540 11666 ft 305 kts 272°
2026-05-06 16:34 60.15385 10.60283 12698 ft 305 kts 272°
2026-05-06 16:35 60.15509 10.56052 13753 ft 303 kts 272°
2026-05-06 16:35 60.15631 10.51838 14669 ft 302 kts 271°
2026-05-06 16:35 60.15749 10.47634 15526 ft 302 kts 271°
2026-05-06 16:35 60.15868 10.43409 16354 ft 304 kts 271°
2026-05-06 16:36 60.15988 10.39166 17190 ft 305 kts 271°
2026-05-06 16:36 60.16109 10.34907 18041 ft 307 kts 271°
2026-05-06 16:36 60.16229 10.30614 18789 ft 309 kts 271°
2026-05-06 16:36 60.16346 10.26297 19503 ft 311 kts 270°
2026-05-06 16:37 60.16462 10.21946 20206 ft 313 kts 270°
2026-05-06 16:37 60.16577 10.17570 20907 ft 315 kts 270°
2026-05-06 16:37 60.16689 10.13147 21557 ft 319 kts 269°
2026-05-06 16:37 60.16798 10.08680 22196 ft 322 kts 269°
2026-05-06 16:38 60.16907 10.04166 22878 ft 325 kts 269°
2026-05-06 16:38 60.17018 9.99627 23593 ft 326 kts 269°
2026-05-06 16:38 60.17130 9.95141 24151 ft 327 kts 269°
2026-05-06 16:38 60.17243 9.90573 24691 ft 329 kts 268°
2026-05-06 16:39 60.17354 9.85966 25214 ft 332 kts 268°
2026-05-06 16:39 60.17464 9.81324 25727 ft 334 kts 268°
2026-05-06 16:39 60.17573 9.76635 26234 ft 337 kts 268°
2026-05-06 16:39 60.17681 9.71911 26722 ft 340 kts 267°
2026-05-06 16:40 60.17787 9.67147 27191 ft 343 kts 267°
2026-05-06 16:40 60.17893 9.62343 27710 ft 346 kts 267°
2026-05-06 16:40 60.18000 9.57506 27897 ft 347 kts 267°
2026-05-06 16:40 60.18108 9.52665 27923 ft 347 kts 267°
2026-05-06 16:41 60.18212 9.47829 27922 ft 346 kts 267°
2026-05-06 16:41 60.18310 9.43002 27929 ft 346 kts 266°
2026-05-06 16:41 60.18404 9.38163 27926 ft 346 kts 267°
2026-05-06 16:41 60.18498 9.33325 27945 ft 345 kts 267°
2026-05-06 16:42 60.18593 9.28516 27941 ft 344 kts 267°
2026-05-06 16:42 60.18687 9.23732 27952 ft 343 kts 267°
2026-05-06 16:42 60.18779 9.18934 27941 ft 343 kts 267°
2026-05-06 16:42 60.18869 9.14149 27941 ft 343 kts 267°
2026-05-06 16:43 60.18956 9.09366 27955 ft 343 kts 266°
2026-05-06 16:43 60.19041 9.04573 27954 ft 343 kts 266°
2026-05-06 16:43 60.19123 8.99783 27957 ft 343 kts 266°
2026-05-06 16:43 60.19201 8.95008 27948 ft 341 kts 266°
2026-05-06 16:44 60.19280 8.90236 27952 ft 342 kts 266°
2026-05-06 16:44 60.19358 8.85457 27949 ft 342 kts 266°
2026-05-06 16:44 60.19434 8.80684 27966 ft 342 kts 266°
2026-05-06 16:44 60.19508 8.75908 27963 ft 342 kts 266°
2026-05-06 16:45 60.19580 8.71139 27960 ft 342 kts 266°
2026-05-06 16:45 60.19649 8.66364 27986 ft 342 kts 267°
2026-05-06 16:45 60.19719 8.61582 27983 ft 342 kts 267°
2026-05-06 16:46 60.19857 8.52037 27998 ft 341 kts 266°
2026-05-06 16:46 60.19922 8.47270 27996 ft 341 kts 266°
2026-05-06 16:46 60.19983 8.42509 27993 ft 341 kts 266°
2026-05-06 16:46 60.20038 8.37743 27991 ft 341 kts 266°
2026-05-06 16:47 60.20092 8.33049 27990 ft 341 kts 266°
2026-05-06 16:47 60.20149 8.28286 27967 ft 342 kts 266°
2026-05-06 16:47 60.20255 8.23475 27982 ft 345 kts 268°
2026-05-06 16:47 60.20406 8.18656 27984 ft 346 kts 268°
2026-05-06 16:48 60.20575 8.13835 27986 ft 346 kts 268°
2026-05-06 16:48 60.20742 8.09011 27983 ft 345 kts 268°
2026-05-06 16:48 60.20897 8.04189 27984 ft 345 kts 268°
2026-05-06 16:49 60.21184 7.94561 28024 ft 345 kts 268°
2026-05-06 16:49 60.21509 7.84925 28026 ft 348 kts 274°
2026-05-06 16:50 60.22668 7.75380 28021 ft 352 kts 277°
2026-05-06 16:50 60.23264 7.70607 27743 ft 351 kts 277°
2026-05-06 16:50 60.23861 7.65778 27472 ft 358 kts 277°
2026-05-06 16:50 60.24458 7.60917 27250 ft 358 kts 278°
2026-05-06 16:51 60.25054 7.56079 26773 ft 353 kts 278°
2026-05-06 16:51 60.25642 7.51304 26319 ft 350 kts 278°
2026-05-06 16:51 60.26221 7.46573 25873 ft 346 kts 278°
2026-05-06 16:51 60.26791 7.41888 25435 ft 343 kts 278°
2026-05-06 16:52 60.27356 7.37236 25046 ft 340 kts 279°
2026-05-06 16:52 60.27914 7.32625 24598 ft 336 kts 279°
2026-05-06 16:52 60.28461 7.28073 24199 ft 333 kts 279°
2026-05-06 16:52 60.29001 7.23553 23813 ft 330 kts 279°
2026-05-06 16:53 60.29534 7.19079 23395 ft 327 kts 279°
2026-05-06 16:53 60.30062 7.14623 22996 ft 326 kts 279°
2026-05-06 16:53 60.30586 7.10191 22617 ft 325 kts 279°
2026-05-06 16:53 60.31109 7.05773 22233 ft 323 kts 279°
2026-05-06 16:54 60.31630 7.01369 21844 ft 322 kts 279°
2026-05-06 16:54 60.32146 6.96985 21460 ft 320 kts 279°
2026-05-06 16:54 60.32659 6.92621 21061 ft 319 kts 279°
2026-05-06 16:54 60.33168 6.88277 20664 ft 318 kts 279°
2026-05-06 16:55 60.33672 6.83940 20257 ft 316 kts 279°
2026-05-06 16:55 60.34172 6.79622 19845 ft 316 kts 279°
2026-05-06 16:55 60.34670 6.75318 19430 ft 314 kts 280°
2026-05-06 16:55 60.35166 6.71023 19040 ft 313 kts 280°
2026-05-06 16:56 60.35657 6.66767 18592 ft 309 kts 281°
2026-05-06 16:56 60.36140 6.62576 18141 ft 305 kts 281°
2026-05-06 16:56 60.36618 6.58394 17698 ft 306 kts 281°
2026-05-06 16:56 60.37094 6.54207 17270 ft 307 kts 281°
2026-05-06 16:57 60.37573 6.49995 16837 ft 308 kts 281°
2026-05-06 16:57 60.38054 6.45754 16409 ft 311 kts 282°
2026-05-06 16:57 60.38536 6.41487 15970 ft 313 kts 282°
2026-05-06 16:57 60.39020 6.37181 15531 ft 315 kts 282°
2026-05-06 16:58 60.39505 6.32848 15084 ft 318 kts 282°
2026-05-06 16:58 60.39993 6.28468 14633 ft 320 kts 282°
2026-05-06 16:58 60.40485 6.24058 14185 ft 323 kts 282°
2026-05-06 16:58 60.40981 6.19600 13676 ft 326 kts 283°
2026-05-06 16:59 60.41478 6.15128 13174 ft 326 kts 282°
2026-05-06 16:59 60.41972 6.10656 12708 ft 325 kts 282°
2026-05-06 16:59 60.42462 6.06200 12248 ft 323 kts 282°
2026-05-06 16:59 60.42949 6.01782 11785 ft 321 kts 282°
2026-05-06 17:00 60.43433 5.97391 11327 ft 318 kts 282°
2026-05-06 17:00 60.43906 5.93055 10883 ft 313 kts 282°
2026-05-06 17:00 60.44368 5.88799 10442 ft 308 kts 282°
2026-05-06 17:00 60.44819 5.84654 10273 ft 295 kts 282°
2026-05-06 17:01 60.45250 5.80687 10144 ft 282 kts 282°
2026-05-06 17:01 60.45661 5.76877 9960 ft 273 kts 282°
2026-05-06 17:01 60.46059 5.73154 9765 ft 269 kts 282°
2026-05-06 17:01 60.46451 5.69456 9448 ft 269 kts 282°
2026-05-06 17:02 60.46846 5.65755 8967 ft 268 kts 282°
2026-05-06 17:02 60.47235 5.62118 8477 ft 267 kts 282°
2026-05-06 17:02 60.47628 5.58448 8021 ft 266 kts 282°
2026-05-06 17:02 60.48012 5.54807 7551 ft 265 kts 282°
2026-05-06 17:03 60.48394 5.51179 7126 ft 262 kts 282°
2026-05-06 17:03 60.48771 5.47591 6709 ft 258 kts 282°
2026-05-06 17:03 60.49139 5.44062 6290 ft 254 kts 282°
2026-05-06 17:03 60.49501 5.40586 5870 ft 250 kts 282°
2026-05-06 17:04 60.49857 5.37169 5455 ft 245 kts 281°
2026-05-06 17:04 60.50203 5.33835 5065 ft 238 kts 282°
2026-05-06 17:04 60.50522 5.30595 4661 ft 231 kts 276°
2026-05-06 17:04 60.50438 5.27404 4259 ft 225 kts 257°
2026-05-06 17:05 60.49841 5.24521 3896 ft 218 kts 241°
2026-05-06 17:05 60.49104 5.21901 3562 ft 211 kts 242°
2026-05-06 17:05 60.48326 5.19412 3292 ft 207 kts 231°
2026-05-06 17:05 60.47231 5.17591 3116 ft 203 kts 211°
2026-05-06 17:06 60.45904 5.16656 3036 ft 203 kts 192°
2026-05-06 17:06 60.44508 5.16690 3009 ft 196 kts 174°
2026-05-06 17:06 60.43183 5.17150 2840 ft 191 kts 174°
2026-05-06 17:06 60.41888 5.17583 2582 ft 187 kts 174°
2026-05-06 17:07 60.40618 5.18011 2328 ft 182 kts 174°
2026-05-06 17:07 60.39406 5.18422 2079 ft 171 kts 175°
2026-05-06 17:07 60.38251 5.18812 1849 ft 166 kts 175°
2026-05-06 17:07 60.37127 5.19191 1617 ft 163 kts 175°
2026-05-06 17:08 60.36013 5.19566 1387 ft 162 kts 175°
2026-05-06 17:08 60.34901 5.19941 1141 ft 158 kts 174°
2026-05-06 17:08 60.33853 5.20294 909 ft 148 kts 174°
2026-05-06 17:08 60.32858 5.20618 692 ft 142 kts 172°
2026-05-06 17:09 60.31901 5.20942 493 ft 137 kts 171°
2026-05-06 17:09 60.30977 5.21262 327 ft 133 kts 170°
2026-05-06 17:09 60.30072 5.21568 173 ft 128 kts 170°
2026-05-06 17:09 60.29301 5.21829 157 ft 92 kts 171°
2026-05-06 17:10 60.28866 5.21976 162 ft 32 kts 171°
2026-05-06 17:10 60.28702 5.22033 162 ft 17 kts 168°
2026-05-06 17:10 60.28665 5.22189 162 ft 12 kts 80°
2026-05-06 17:10 60.28671 5.22260 164 ft 0 kts 80°
2026-05-06 17:14 60.28671 5.22261 164 ft 1 kts 80°
2026-05-06 17:14 60.28678 5.22341 164 ft 10 kts 80°
2026-05-06 17:14 60.28704 5.22506 166 ft 14 kts 70°
2026-05-06 17:14 60.28719 5.22666 170 ft 12 kts 80°
2026-05-06 17:15 60.28769 5.22765 173 ft 11 kts 30°
2026-05-06 17:15 60.28814 5.22832 173 ft 5 kts 63°
2026-05-06 17:15 60.28820 5.22884 173 ft 1 kts 80°
2026-05-06 17:17 60.28820 5.22885 173 ft 0 kts 80°